sat.trackr.live / text

‹ back to catalog

STARLINK-32853

NORAD 62818 · 2025-018N

PAYLOAD ACTIVE UNKNOWN

§ Identity

Operator
Country
US
Launch date
2025-01-24
Launch site
AFWTR
Launch vehicle
Mass (kg)
RCS (m²)

Purposes: comms

External: N2YO · Heavens-Above · Gunter

§ Orbital elements

Epoch: 2026-09-21T19:50:57.962400Z

Period
93.85 min
Inclination
53.1583°
Eccentricity
0.0001766
Mean motion
15.34401170 rev/d
Perigee alt
461.5 km
Apogee alt
463.9 km
Semi-major
6,840.8 km
B*
3.5291e-4
RAAN
115.3127°
Arg perigee
58.5596°
Mean anomaly
301.5579°
Rev number
9,325

§ Raw data

STARLINK-328531 62818U 25018N   26264.82705975  .00011566  00000+0  35291-3 0  99952 62818  53.1583 115.3127 0001766  58.5596 301.5579 15.34401170 93255

JSON: /api/v1/satellites/62818 · /tle

For live sub-satellite position, see the globe view (requires WebGL).

§ Visibility from observer

Set your observer location to see the next 7 days of passes ≥ 10°. The values pass through the URL so the page stays shareable.

No JS? Fill the form by hand. The geolocation button needs JavaScript.